Find Starlink 32735

NORAD ID: 63044 Int'l Des: 2025-034 Owner: SPXS Country: US Constellation: starlink operational
LEOCIRCULAR

Live-Position

3D-Globus wird geladen...

Über Starlink 32735

Beschreibung wird geladen...

Nächste Überflüge

Passes for default location (London). Set your location on the main map for personalized predictions.

Höhenverlauf

Loading altitude history...

Zweizeiliger Elementsatz

1 63044U 25034R 26106.66131046 .00009215 00000-0 32274-3 0 9991
2 63044 53.1577 94.3053 0001083 80.8130 279.2993 15.30213005 64723
Epoch: 16. Apr. 2026 • Age: 20 hours

Aktueller Status

Höhe 483.3 km
Geschwindigkeit 7.62 km/s
Subsatellitenpunkt -26.48°S, 41.43°E
Startdatum 18. Feb. 2025
Alter 1.1 years
Typ internet

Technische Details

Klassifizierung Payload
Masse 730.00 kg
Trockenmasse 700.00 kg
Gesamtmasse 730.00 kg
Länge 0.30 m
Durchmesser 4.10 m
Spannweite 29.00 m
Form Box + pan
Hersteller SPXS
Bus-Typ Starlink V2M
Phasenstatus In Orbit
Besitzer/Staat SPXS/US

Most Searched